sat.trackr.live / text

‹ back to catalog

ZY-1 02E

NORAD 50465 · 2021-131A

PAYLOAD ACTIVE UNKNOWN

§ Identity

Operator
Country
PRC
Launch date
2021-12-26
Launch site
TAISC
Launch vehicle
Mass (kg)
RCS (m²)

External: N2YO · Heavens-Above · Gunter

§ Orbital elements

Epoch: 2026-09-13T04:30:49.043232Z

Period
100.32 min
Inclination
98.4381°
Eccentricity
0.0001235
Mean motion
14.35396081 rev/d
Perigee alt
772.9 km
Apogee alt
774.6 km
Semi-major
7,151.9 km
B*
2.0348e-5
RAAN
331.3809°
Arg perigee
139.1366°
Mean anomaly
220.9913°
Rev number
24,704

§ Raw data

ZY-1 02E1 50465U 21131A   26256.18806763  .00000015  00000+0  20348-4 0  99942 50465  98.4381 331.3809 0001235 139.1366 220.9913 14.35396081247045

JSON: /api/v1/satellites/50465 · /tle

For live sub-satellite position, see the globe view (requires WebGL).

§ Visibility from observer

Set your observer location to see the next 7 days of passes ≥ 10°. The values pass through the URL so the page stays shareable.

No JS? Fill the form by hand. The geolocation button needs JavaScript.

§ Radio — SatNOGS DB

ModeDescriptionDownlinkUplink
FM S-band telemetry 2.232 GHz

1 transmitter · refreshed weekly from db.satnogs.org